Regional Weather Roundup
Issued by NWS

Home | Current Version | Previous Version | Graphics & Text | Print | Product List | Glossary On
Versions: 1 2 3 4 5 6 7 8 9 10 11 12 13 14 15 16 17 18 19 20 21 22 23 24 25 26 27 28 29 30 31 32 33 34 35 36 37 38 39 40 41 42 43 44 45 46 47 48 49 50
000
ASUS43 KFSD 241502
RWRSD

WEATHER ROUNDUP FOR SOUTH DAKOTA
NATIONAL WEATHER SERVICE SIOUX FALLS SD
1000 AM CDT SUN MAY 24 2015

NOTE: "FAIR" INDICATES FEW OR NO CLOUDS BELOW 12,000 FEET WITH NO
SIGNIFICANT WEATHER AND/OR OBSTRUCTIONS TO VISIBILITY.


SDZ001>005-009-010-012>017-241600-
NORTHWEST AND NORTH CENTRAL SOUTH DAKOTA

CITY           SKY/WX    TMP DP  RH WIND       PRES   REMARKS
FAITH            N/A     53  51  93 NE13      29.97F
MOBRIDGE       CLOUDY    62  51  67 NE13      29.96F
$$

SDZ012>016-024>037-041>051-057-063-072>074-241600-
SOUTHWEST AND SOUTH CENTRAL SOUTH DAKOTA

CITY           SKY/WX    TMP DP  RH WIND       PRES   REMARKS
RAPID CTY ARPT LGT RAIN  53  52  96 E18G26    29.93S
PIERRE         CLOUDY    59  55  87 NE9       29.93F
CUSTER         LGT RAIN  47  45  93 E13       29.95S FOG
ELLSWORTH AFB  LGT RAIN  52  52 100 E21       29.92
PHILIP         LGT RAIN  56  55  97 E15       29.93S FOG
PINE RIDGE     RAIN      53  50  89 NE6       29.89F FOG
WINNER         LGT RAIN  57  55  93 E12       29.92S FOG
$$

SDZ004>011-016>023-039-040-241600-
NORTHEAST SOUTH DAKOTA

CITY           SKY/WX    TMP DP  RH WIND       PRES   REMARKS
ABERDEEN       CLOUDY    63  51  65 NE10      29.98F
WATERTOWN      CLOUDY    58  54  86 NE7       29.98F
BROOKINGS      CLOUDY    59  55  88 E13       29.97F
$$

SDZ017-020-022-023-036>040-048>070-241600-
SOUTHEAST SOUTH DAKOTA

CITY           SKY/WX    TMP DP  RH WIND       PRES   REMARKS
SIOUX FALLS    LGT RAIN  61  58  90 E14       29.92F
HURON          LGT RAIN  58  57  97 NE7       29.95S FOG
MITCHELL       LGT RAIN  60  59  96 NE7       29.93F FOG
YANKTON        CLOUDY    59  57  94 NE8       29.89F
$$

ABBREVIATIONS USED IN REMARKS
   TC - TEMPERATURE IN CELSIUS
  WCI - WIND CHILL INDEX
   HX - HEAT INDEX
  VSB - VISIBILITY




USA.gov is the U.S. government's official web portal to all federal, state and local government web resources and services.